Home > Weather > Telford > Past weeks

Flag for United Kingdom Weather for the Past 2 Weeks in Telford, England, United Kingdom

Now
46 °F

Sunny.


Feels Like: 46 °F
Forecast: 53 / 67 °F
Wind: 1 mph from Northeast

Location: Shawbury

Current Time: May 6, 2016 at 8:21:24 AM

Latest Report: May 6, 2016 at 7:50 AM


Visibility: 10 mi

Pressure: 29.92 "Hg

Humidity: 82%

Dew Point: 41 °F

Location of TelfordLocation

Historic Weather in Telford — Graph

°F

Telford Temperature Yesterday

Maximum temperature yesterday: 66 °F (at 2:50 PM)
Minimum temperature yesterday: 39 °F (at 5:50 AM)
Average temperature yesterday: 54 °F

High & Low Weather Summary for the Past Weeks

 TemperatureHumidityPressure
High66 °F (May 5, 2:50 PM)100% (Apr 30, 10:50 PM)30.30 "Hg (Apr 30, 10:50 PM)
Low30 °F (Apr 28, 1:50 AM)39% (May 4, 5:50 PM)29.68 "Hg (Apr 28, 10:50 PM)
Average45 °F75%30.05 "Hg
* Reported Apr 21 6:50 AM — May 6 6:50 AM, Telford, Weather by CustomWeather, © 2016

Note: Actual official high and low records may vary slightly from our data, if they occured in-between our weather recording intervals... More about our weather records

Advertising

Telford Weather History for the Previous 24 Hours

Scroll right to see more
 ConditionsComfort  
Time TempWeatherWind HumidityBarometerVisibility
6:50 AM
Fri, May 6
43 °FFog.No wind93%29.92 "Hg4 mi
5:50 AM39 °FFog.1 mph100%29.92 "Hg1 mi
4:50 AM41 °FFog.1 mph93%29.92 "Hg0 mi
3:50 AM43 °FFog.2 mph100%29.95 "Hg1 mi
2:50 AM46 °FPassing clouds.2 mph93%29.95 "Hg4 mi
1:50 AM46 °FOvercast.1 mph93%29.98 "Hg4 mi
12:50 AM46 °FOvercast.3 mph93%29.98 "Hg5 mi
11:50 PM
Thu, May 5
48 °FPassing clouds.3 mph87%30.01 "HgN/A
10:50 PM48 °FPassing clouds.9 mph87%30.01 "HgN/A
9:50 PM52 °FCool.12 mph77%30.01 "HgN/A
8:50 PM54 °FCool.10 mph77%30.01 "HgN/A
7:50 PM63 °FPassing clouds.3 mph56%29.98 "HgN/A
6:50 PM64 °FMild.7 mph49%29.98 "HgN/A
5:50 PM66 °FMild.8 mph43%30.01 "HgN/A
4:50 PM66 °FSunny.10 mph43%30.01 "Hg10 mi
3:50 PM66 °FSunny.15 mph43%30.04 "Hg10 mi
2:50 PM66 °FSunny.14 mph46%30.04 "Hg10 mi
1:50 PM64 °FSunny.13 mph46%30.07 "Hg10 mi
12:50 PM63 °FPartly sunny.13 mph49%30.07 "HgN/A
11:50 AM63 °FPartly sunny.10 mph52%30.09 "HgN/A
10:50 AM61 °FSunny.10 mph52%30.09 "Hg10 mi
9:50 AM55 °FSunny.7 mph63%30.09 "Hg10 mi
8:50 AM52 °FSunny.3 mph67%30.12 "Hg10 mi
Weather by CustomWeather, © 2016

See weather overviewHow to use our weather pages